Погода в Гагре

Абхазия     43°16′49″N   40°15′54″E
темп.,
°C
ветер,
м/с
пор.,
м/с
влажн.,
%
обл.,
%
осадки,
мм/ч
давл.,
гПа
погр.,
м
18 мая, вт
вт1800:00+15вюв349190 1.3 1013134
03:00+15вюв239146 1.7 1013112
06:00+15вюв348918 0.2 1012181
09:00+16ююв458810 0.6 1013222
12:00+18ююв45761 0.6 1012230
15:00+18ююв34700 0.6 1012249
18:00+19вюв22725 0.0 101091
21:00+18всв44655 0.0 101028
19 мая, ср
ср1900:00+17с3364100 0.0 100832
03:00+17сз71163100 0.1 1009196
06:00+16зсз457890 0.8 1011117
09:00+15ссз448883 1.3 1016214
12:00+16з22780 0.9 1019317
15:00+16ю22690 0.9 1019334
18:00+17вюв33680 0.0 1018127
21:00+15всв34591 0.0 101860
20 мая, чт
чт2000:00+15всв335596 0.0 101832
03:00+15всв445298 0.0 101647
06:00+16всв44525 0.0 101554
09:00+19юв34508 0.0 1014225
12:00+21юв344899 0.0 1013223
15:00+23юв23450 0.0 1011190
18:00+23в33523 0.0 101024
21:00+21всв77390 0.0 100939
21 мая, пт
пт2100:00+21всв76385 0.0 100836
03:00+21св66381 0.0 100734
06:00+21всв54504 0.0 100725
09:00+21ю22600 0.0 100892
12:00+27юв914430 0.0 1008361
15:00+23юв78626 0.0 1008288
18:00+21юв34730 0.0 100651
21:00+20св22675 0.0 100620
22 мая, сб
сб2200:00+21св22588 0.0 100421
03:00+21св335648 0.1 100422
06:00+20ссв336592 0.3 100422
09:00+23с22555 0.3 1006105
12:00+19ю347838 0.0 1010159
15:00+21ююв687586 0.0 1008262
18:00+18св348693 0.2 1009119
21:00+18ююв3590100 0.8 1010131